Regional Weather Roundup
Issued by NWS Wakefield, VA

Home | Current Version | Previous Version | Graphics & Text | Print | Product List | Glossary On
Versions: 1 2 3 4 5 6 7 8 9 10 11 12 13 14 15 16 17 18 19 20 21 22 23 24 25 26 27 28 29 30 31 32 33 34 35 36 37 38 39 40 41 42 43 44 45 46 47 48 49 50
000
ASUS41 KAKQ 231310
RWRAKQ

REGIONAL WEATHER ROUNDUP
NATIONAL WEATHER SERVICE WAKEFIELD VA
900 AM EDT TUE SEP 23 2014

Note: "fair" indicates few or no clouds below 12,000 feet with no
significant weather and/or obstructions to visibility. * = Denotes
station may not report precipitation (e.g., rain,snow,etc.),
thunder or fog.

VAZ042-051-052>054-056-231400-
NORTHERN VIRGINIA

CITY           SKY/WX    TMP DP  RH WIND       PRES   REMARKS
WASH NATIONAL  MOSUNNY   60  42  51 NE8       30.35R
DULLES         MOSUNNY   53  42  66 NW5       30.36R
FORT BELVOIR   MOSUNNY   58  45  61 VRB1      30.35R
QUANTICO       MOSUNNY   57  43  59 N9        30.36R
FREDERICKSBRG* MOSUNNY   55  44  65 N6        30.34R
STAFFORD*      MOSUNNY   55  44  66 CALM      30.39R
WARRENTON      MOSUNNY   53  50  90 CALM      30.35R
CULPEPER*      PTSUNNY   50  45  81 N3        30.36S
MANASSAS*      NOT AVBL
LEESBURG*      SUNNY     55  46  71 N5        30.36R
WINCHESTER     SUNNY     54  43  66 NW5       30.35S
FRONT ROYAL*   MOSUNNY   50  45  81 CALM      30.36R
LURAY*         MOSUNNY   50  48  93 CALM      30.36R
$$

VAZ048-049-060>072-079>083-231400-
CENTRAL AND SOUTH CENTRAL VIRGINIA...AND NORTH CENTRAL NORTH CAROLINA

CITY           SKY/WX    TMP DP  RH WIND       PRES   REMARKS
RICHMOND       PTSUNNY   57  44  62 N10       30.33R
CHESTERFIELD*  PTSUNNY   57  37  47 N6        30.34R
PETERSBURG*    PTSUNNY   56  44  62 N7        30.33R
HANOVER        MOSUNNY   54  45  71 N3        30.36R
TAPPAHANNOCK*  CLOUDY    55  46  71 CALM      30.34R
CHARLOTTSVILLE MOSUNNY   53  44  71 N5        30.35R
ORANGE*        MOSUNNY   55  43  62 N7        30.36R
LOUISA*        MOSUNNY   55  45  67 N5        30.34R
FARMVILLE*     MOSUNNY   54  45  71 N5        30.34R
CREWE*         CLOUDY    54  44  68 N5        30.34R
FORT PICKETT*  CLOUDY    54  45  72 NE7       30.33R
LUNENBURG*     CLOUDY    55  46  73 NE6       30.32R
SOUTH HILL*    CLOUDY    55  46  71 N6        30.37R
LAWRENCEVILLE* CLOUDY    54  47  75 CALM      30.31R
ROANOKE RAPIDS CLOUDY    55  46  71 N8        30.30R
RALEIGH        CLOUDY    58  45  62 NE7       30.32R
$$

VAZ088>098-231400-
SOUTHEAST VIRGINIA

CITY           SKY/WX    TMP DP  RH WIND       PRES   REMARKS
NORFOLK        CLOUDY    63  50  62 NE13      30.28R
VIRGINIA BEACH CLOUDY    63  53  70 N12       30.27R
NORFOLK NAVAL  CLOUDY    65  49  56 NE13      30.31R
WEST POINT*    CLOUDY    58  49  73 NW3       30.34R
NEWPORT NEWS   CLOUDY    65  49  56 NE9       30.30R
LANGLEY AFB    CLOUDY    63  48  58 NE10      30.29R
FORT EUSTIS    CLOUDY    61  48  62 N7        30.29R
WILLIAMSBURG*  CLOUDY    61  52  72 NE3       30.32R
HR EXEC AP*    CLOUDY    63  48  59 NE5       30.31R
FRANKLIN*      CLOUDY    57  52  82 N3        30.30R
WAKEFIELD      CLOUDY    58  49  72 N5        30.31R
$$

VAZ020-022-025-037-045-231400-
WEST CENTRAL AND SOUTHWEST VIRGINIA

CITY           SKY/WX    TMP DP  RH WIND       PRES   REMARKS
STAUNTON*      MOSUNNY   47  42  82 CALM      30.37R
HOT SPRINGS VA SUNNY     45  29  55 E6        30.35R
LYNCHBURG      PTSUNNY   52  45  77 NE7       30.36R
DANVILLE       PTSUNNY   56  46  69 NE7       30.34R
SOUTH BOSTON*  NOT AVBL
MARTINSVILLE   PTSUNNY   54  49  81 CALM      30.37R
ROANOKE        MOSUNNY   53  46  77 CALM      30.38R
BLACKSBURG     MOSUNNY   48  48 100 E5        30.38R
DUBLIN*        SUNNY     49  49 100 S5        30.37R
MARION*        SUNNY     51  48  87 E6        30.36R
HILLSVILLE*    MOSUNNY   47  46  96 CALM      30.34R
RICHLANDS*     SUNNY     52  47  82 E10       30.31R
WISE*          SUNNY     50  48  93 NE6       30.32R
ABINGDON*      SUNNY     53  48  83 E8        30.29R
$$

MDZ021>025-VAZ099-100-231400-
SOUTHERN MARYLAND AND THE DELMARVA PENINSULA

CITY           SKY/WX    TMP DP  RH WIND       PRES   REMARKS
PATUXENT RIVER PTSUNNY   59  40  49 NE13      30.33R
BAY BRIDGE APT   N/A     59  43  55 N7        30.34R
LEONARDTOWN    PTSUNNY   55  46  71 CALM      30.35R
DOVER          SUNNY     55  46  72 NW6       30.31R
GEORGETOWN     MOSUNNY   55  44  66 N5        30.32R
EASTON         SUNNY     55  48  76 CALM      30.37R
CAMBRIDGE      PTSUNNY   57  43  58 N7        30.33R
SALISBURY      PTSUNNY   56  45  66 N6        30.32R
OCEAN CITY     PTSUNNY   56  47  71 NW5       30.31R
WALLOPS ISLAND CLOUDY    56  46  69 N8        30.31R
ACCOMACK*      CLOUDY    55  43  62 N10       30.30S
$$

NCZ012>017-030>032-231400-
EASTERN NORTH CAROLINA

CITY           SKY/WX    TMP DP  RH WIND       PRES   REMARKS
ELIZABETH CITY CLOUDY    62  54  74 N13       30.26R
AHOSKIE*       CLOUDY    57  49  75 N6        30.29R
EDENTON*       CLOUDY    60  52  76 N7        30.25S
CURRITUCK*     CLOUDY    67  53  62 NE10      30.26R
KILL DEVIL HLS CLOUDY    68  57  68 NE9       30.22S
MANTEO         CLOUDY    67  58  71 NE14G20   30.23R
CAPE HATTERAS  CLOUDY    69  61  75 NE10G22   30.18S
TARBORO*       CLOUDY    59  49  70 N6        30.29R
GOLDSBORO      CLOUDY    60  55  83 N6        30.24R
WASHINGTON     CLOUDY    60  54  80 N7        30.24R
GREENVILLE     CLOUDY    59  52  77 N8        30.26R
NEW BERN       CLOUDY    66  58  75 NE10      30.22R
WILMINGTON     LGT RAIN  66  62  87 N10       30.19R
$$

VAZ048-231400-
ELSEWHERE

CITY           SKY/WX    TMP DP  RH WIND       PRES   REMARKS
HARRISBURG PA  SUNNY     55  45  68 NW8       30.34R
BALTIMORE      MOSUNNY   58  44  60 N8        30.34R
ANNAPOLIS      MOSUNNY   57  47  69 NW7       30.34R
ANDREWS AFB    MOSUNNY   57  44  62 N12       30.34R
WILMINGTON DE  SUNNY     56  45  66 N8        30.34R
PHILADELPHIA   MOSUNNY   57  42  57 N8        30.33R
WILDWOOD NJ*   MOSUNNY   57  41  54 N7        30.33R
ATLANTIC CITY  SUNNY     52  44  74 N8        30.32R
HENDERSON NC   CLOUDY    56  45  66 NE7       30.31R
GREENSBORO     CLOUDY    57  46  66 NE10      30.31R
ROCKY MOUNT    CLOUDY    60  48  64 NE10      30.28R
FAYETTEVILLE   CLOUDY    61  53  75 N12       30.25R
CHARLOTTE      CLOUDY    60  49  66 NE8G16    30.26R
$$

VAZ100-231400-
MARINE

STATION/POSITION TIME  TEMP    WIND        PRES    WAVE   SWELL
                       AIR SEA DIR/SP/G            HT/PER HT/PER
                 (UTC) (F)     (DEG/KT/KT) (MB)    (FT/S) (FT/S)
44066 TX TWR #4  1300   60 70   10/ 12/ 16 1025.2R   4/ 6   3/ 6
CAPE MAY NJ      1300   58 72   10/  7/ 10 1026.2R
LEWES DE         1300   59 68   30/ 14/ 18 1026.2R
15NM E FENWICK I 1300   61 71              1025.7R   4/ 6
OCEAN-CITY-INLET 1300   58 70  350/  7/  9 1025.8R
WACHAPREAGUE VA  1300   57 70  360/  6/ 13 1025.7F
THOMAS POINT MD  1300   57 71  360/ 12/ 14 1028.2R
GOOSES REEF MD   1300   60      40/ 14/ 19 1027.2R
COVE POINT MD    1300   58      40/ 13/ 15 1027.1R
SOLOMONS ISLAND  1300      74                N/A
BISHOPS HEAD MD  1300   57 65   30/ 12/ 16 1026.4S
PINEY POINT MD   1300           60/  6/  8   N/A
POTOMAC MD       1300   60      50/ 14/ 17 1026.1S
CAMBRIDGE MD     1300   56 71   20/  8/ 10 1026.8R
LEWISETTA VA     1300   60 71   60/ 11/ 16 1026.5R
RAPPAHANNOCK LGT 1300           20/ 18/ 22 1026.1S
STINGRAY PT      1300   61      50/ 17/ 21   N/A
YORK RVR RNG VA  1300   63      40/ 17/ 20 1025.3R
YORKTOWN VA      1300   62 75   40/ 13/ 15 1025.6R
JAMESTOWN VA     1300   56     360/  4/  8   N/A
DOMINION TERM VA 1300   63      50/  6/ 10 1025.6R
KIPTOPEKE VA     1300      76   30/  7/ 11   N/A
CHES BAY BRIDGE  1300   62 74   20/ 14/ 19 1024.9R
CAPE HENRY VA    1300   62      20/ 19/ 22 1024.0R
CHESAPEAKE LGHT  1200   65      30/ 19/ 20 1024.4R
WILLOUBY STN VA  1300   63      40/ 14/ 16 1024.3R
S CRANEY ISL VA  1300          360/ 14/ 17 1025.2R
CAPE HENRY BUOY  1300      74                N/A     4/ 6
1ST LANDING BUOY 1300   63      20/ 16/ 19 1024.8R
CAPE CHARLES BUO 1300      74                N/A     4/ 5   2/ 7
OFFSHORE WE BUOY 1300      73                N/A     4/ 6   2/10
64NM E OF VA BCH 1300   69 76   50/ 12/ 16 1023.4R   4/ 6   3/ 6
DUCK PIER NC     1300   68 74   40/ 17/ 19 1023.1F
44100 DUCK FRF   1300      74                N/A     5/ 6
44056 DUCK FRF   1300                        N/A     5/ 6
OREGON INLET NC  1300   69 74   30/ 13/ 20 1022.9S
DIAMOND SHLS NC  1300   75      20/ 19/ 25 1020.9R   6/ 7
CAPE LOOKOUT NC  1200   73      40/ 21/ 27 1021.0R
$$



USA.gov is the U.S. government's official web portal to all federal, state and local government web resources and services.